Dauntless Aviation
Airports Europe United Kingdom
EGLC
LCY

London City

London, UNITED KINGDOM

Airport Info
Suggest Updated Information for this Airport

Location

Latitude / Longitude: 51°30'18"N / 0°3'12"E
  51°30.3'N / 0°3.21'E
  51.5050 / 0.0535

Nearby radio navigation aids

LCY CITY NDB on field.

Runway Information

Runway 10 /28

Dimensions: 4948 x 98 ft.
Surface: ASP
 
Runway 10
Runway 28
Latitude: 51.505528 51.504922
Longitude: 0.045753 0.064953
Elevation: 16 ft. 16 ft.
Runway true heading: 91.1 271.1
 

Instrument Procedures

  Aerodrome Chart
  Aircraft Parking/Docking Chart
  Control Zone and Control Area Chart

STARs (Standard Terminal Arrivals)

  Standard Instrument Arrival Coding Tables Rwy 09/27 JACKO 1L/ 1M
  Standard Instrument Arrival Coding Tables Rwy 09/27 GODLU 1G/ 1H
  Standard Instrument Arrival Coding Tables Rwy 09/27 GODLU 1J/ 1K/ 1L
  RNAV1 (DME/DME or GNSS) Transition Arrival Chart - Instrument Rwy 27 LAVNO 1G 1J
  RNAV1 (DME/DME or GNSS) Transition Arrival Chart - Instrument Rwy 09 ODLEG 1G 1J
  RNAV5 (VOR/DME/ DME/DME or GNSS) STAR - Instrument Rwy 09/27 JACKO 1A 1B 1D
  RNAV5 (VOR/DME/ DME/DME or GNSS) STAR - Instrument Rwy 09/27 GODLU 1A 1C 1D 1F
  RNAV5 (VOR/DME/ DME/DME or GNSS) STAR - Instrument Rwy 09/27 JACKO 1H
  RNAV5 (VOR/DME/ DME/DME or GNSS) STAR - Instrument Rwy 09/27 JACKO 1L 1M
  RNAV5 (VOR/DME/ DME/DME or GNSS) STAR - Instrument Rwy 09/27 GODLU 1G 1H
  RNAV5 (VOR/DME/ DME/DME or GNSS) STAR - Instrument Rwy 09/27 GODLU 1J 1K 1L
  Standard Instrument Arrival Coding Tables Rwy 09/27 JACKO 1A/ 1B/ 1D
  Standard Instrument Arrival Coding Tables Rwy 09/27 GODLU 1A/ 1C/ 1D/ 1F
  Standard Instrument Arrival Coding Tables Rwy 09/27 JACKO 1H

IAPs (Instrument Approach Procedures)

  ILS (5.5°GP) /DME/NDB (L) Rwy 09 (Aircraft CAT A/B/C)
  LOC/DME/NDB (L) Rwy 09
  LOC/DME/NDB (L) Rwy 27 (Aircraft CAT A/B/C)
  Visual Approach Profile Rwy 27
  Visual Approach Profile Rwy 09
  ILS (5.5°GP) /DME/NDB (L) Rwy 27 (Aircraft CAT A/B/C)
  Aerodrome Information (Textual)
  Transition Coding Tables Rwy 27 LAVNO 1G/ 1J
  Transition Coding Tables Rwy 09 ODLEG 1G 1J
  RNAV Hold Coding Tables GODLU/ OKVAP/ JACKO/ ROPMU
  ATC Surveillance Minimum Altitude Chart

Departure Procedures

  Standard Instrument Departure Coding Tables Rwy 09 BPK 1H/ CPT 1H
  Standard Instrument Departure Coding Tables Rwy 09 CLN 1H/ Rwy 27 CLN 1A
  SID - Instrument (SID) Rwy 09/27 DVR 5T 5U LYD 5T 5U
  SID - Instrument (SID) Rwy 09/27 CLN 7T 7U
  SID - Instrument (SID) Rwy 09/27 BPK 5T 5U CPT 6T 6U
  RNAV1 (DME/DME or GNSS) SID - Instrument (SID) Rwy 27 BPK 1A CPT 1A
  RNAV1 (DME/DME or GNSS) SID - Instrument (SID) Rwy 09 BPK 1H CPT 1H
  RNAV1 (DME/DME or GNSS) SID - Instrument (SID) Rwy 09/27 CLN 1A 1H
  Standard Instrument Departure Coding Tables Rwy 27 BPK 1A/ CPT 1A
  RNAV1 (DME/DME or GNSS) SID - Instrument (SID) Rwy 09/27 EKNIV 1A 1H
  Standard Instrument Departure Coding Tables Rwy 09 EKNIV 1H/ Rwy 27 EKNIV 1A
Satellite photo at:
Airport distance calculator
From:
Weather Reports

METAR

EGLC

EGLC 240220Z AUTO 24004KT 9999 NCD 16/13 Q1024
EGWU
17.8nm W
EGWU 240150Z AUTO 28003KT 9999 // NCD 13/12 Q1024
EGLL
18.9nm SW
EGLL 240220Z AUTO 26004KT 9999 NCD 14/12 Q1025 NOSIG
EGSS
23.5nm N
EGSS 240220Z AUTO 31003KT 9000 NCD 13/12 Q1024
EGKK
23.8nm S
EGKK 240220Z 20003KT CAVOK 13/12 Q1025
EGMC
24.4nm NE
EGMC 240150Z 26002KT CAVOK 14/11 Q1024

TAF

EGWU
17.8nm W
TAF EGWU 231933Z 2321/2415 27005KT 9999 SCT035 PROB30 2404/2407 7000 BR
EGLL
18.9nm SW
TAF EGLL 232245Z 2400/2506 30005KT 9999 FEW035 PROB30 TEMPO 2404/2407 9000
EGSS
23.5nm N
TAF EGSS 232255Z 2400/2506 31005KT 9999 FEW045 PROB30 TEMPO 2400/2407 9000
EGKK
23.8nm S
TAF EGKK 232258Z 2400/2506 26005KT 9999 FEW025 BECMG 2400/2403 8000 PROB30 TEMPO 2403/2406 3000 BR MIFG BECMG 2406/2409 9999
EGMC
24.4nm NE
TAF EGMC 232256Z 2400/2409 28005KT 9999 FEW030 PROB30 TEMPO 2400/2407 9000
EGGW
26.8nm NW
TAF EGGW 232255Z 2400/2424 29007KT 9999 FEW040 PROB30 TEMPO 2400/2407 9000
Safelog

 

Dauntless Aviation

© 2007-2017 Dauntless Aviation, all rights reserved
Information provided via PilotNav comes from a variety of official and unofficial data sources. As errors are possible, do not use PilotNav for primary flight planning purposes. Verify any information that you receive via PilotNav with current and canonical charts and other official documents. The material in this database is subject to database copyrights held by Dauntless Aviation and may not be copied without the express permission of Dauntless Aviation - licenses for use of part of all of this data are available for purchase; enquire via the Dauntless Aviation helpdesk. A number of mechanisms and markers exist in the database to protect against and identify infringement / copyright. Automated queries against this website are stictly prohibited, and all activity is logged and analyzed.